METEOR 2-7

Satellite information

Favourite Embed

Satellite Type and Status

PAYLOADIN ORBIT

Key statistics

Satellite METEOR 2-7 at a glance.

Uptime

16229

Days in orbit

Revolutions

≈ 14.1

Per day

Orbit

LEO

Low Earth Orbit

Inclination

81.3

Latest

Satellite identification and parameters

Extended collection of information and parameters for METEOR 2-7.

Object identification

Identified? True

Debris? False

Object name: METEOR 2-7

International designator: 1981-043A

Object number (NORAD): 12456

Object ID (CCSDS): 12456

Country: COMMONWEALTH OF INDEPENDENT STATES (CIS)

Current information (Y/N): Y

RCS size: LARGE

Orbital parameters

Period: 102.057 minutes

Inclination: 81.2663 deg

SMA: 7234.168 km

Apoapsis: 890.883 km

Periapsis: 821.183 km

RAAN: 334.8003 deg

Eccentricy: 0.00481748

Argument of periapsis: 98.106 deg

Mean anomaly: 262.558 deg

Mean motion: 14.1097681 rev/day

Mean motion (dot): 0.00000113 rev/day2

B* drag term: 0.000054990697 1/REarth

Two-line elements (TLE)

Creation date: Oct. 18, 2025, 2:17 a.m.

Reference frame: TEME

Reference center: EARTH

Epoch: Oct. 17, 2025, 7:48 p.m. UTC

TLE line 0: 0 METEOR 2-7

TLE line 1: 1 12456U 81043A 25290.82562164 .00000113 00000-0 54991-4 0 9993

TLE line 2: 2 12456 81.2663 334.8003 0048175 98.1060 262.5580 14.10976810284870

Live tracking on map

Real-time ground track for satellite METEOR 2-7.

In-orbit conjunctions

A list of the most updated potential collisions computed for object METEOR 2-7.

Target Orbit TCA Probability of collision Miss distance Type
METEOR 2-17 DEB LEO 2025-10-01 15:25:29 0.0001142244 367.0 (m) DEBRIS
FENGYUN 1C DEB SSO 2025-08-05 13:27:32 0.0003057889 936.0 (m) DEBRIS
FENGYUN 1C DEB SSO 2025-06-30 03:21:40 0.0007123246 414.0 (m) DEBRIS
FENGYUN 1C DEB SSO 2025-03-26 13:12:39 0.001554058 420.0 (m) DEBRIS
FENGYUN 1C DEB SSO 2025-01-23 19:32:51 0.001236894 69.0 (m) DEBRIS

Associated space launch

Second generation soviet meteorological satellite

METEOR 2-7 was lifted into orbit during the mission ‘Vostok 8A92M | Meteor-2 7’, on board a Vostok 8A92M space rocket.

The launch took place on May 14, 1981, 9:45 p.m. from 43/3 (43L).

For more information about the launch, click the button.

Launch to space Vostok 8A92M | Meteor-2 7
Vostok 8A92M | Meteor-2 7

Agency: N/A

Status: Launch Successful

Launch date: May 14, 1981, 9:45 p.m. UTC

Rocket: Vostok 8A92M

Launch pad: 43/3 (43L)

Location: Plesetsk Cosmodrome, Russian Federation

...

Latest news about this satellite

There are no fresh news available about this satellite. Check back as we update our databases every day.


Newsletter sign-up

Weekly statistics, charts and insights to help you stay on top of the space industry.